"Period start","avg(HW err(1)/warn(2) (#))","avg(Visibility (m))","avg(Weather code (#))","avg(Precip intensity (mm/h))","min(HW err(1)/warn(2) (#))","max(HW err(1)/warn(2) (#))","std(HW err(1)/warn(2) (#))","med(HW err(1)/warn(2) (#))","min(Visibility (m))","max(Visibility (m))","std(Visibility (m))","med(Visibility (m))","min(Weather code (#))","max(Weather code (#))","std(Weather code (#))","med(Weather code (#))","min(Precip intensity (mm/h))","max(Precip intensity (mm/h))","std(Precip intensity (mm/h))","med(Precip intensity (mm/h))"
2014-03-16 00:00:00,2,28728,0,0.00,2,2,0,2,19009,36522,5627,29251,0,0,0,0,0.00,0.00,0.00,0.00
2014-03-16 00:10:00,2,20842,0,0.00,2,2,0,2,16499,27527,3559,19110,0,0,0,0,0.00,0.00,0.00,0.00
2014-03-16 00:20:00,2,28399,0,0.00,2,2,0,2,19128,41311,6156,27830,0,0,0,0,0.00,0.00,0.00,0.00
2014-03-16 00:30:00,2,22829,0,0.00,2,2,0,2,12534,33312,7522,22361,0,0,0,0,0.00,0.00,0.00,0.00
2014-03-16 00:40:00,2,18452,0,0.00,2,2,0,2,13448,26632,3437,18400,0,0,0,0,0.00,0.00,0.00,0.00
2014-03-16 00:50:00,2,24933,0,0.00,2,2,0,2,18356,38117,6001,22824,0,0,0,0,0.00,0.00,0.00,0.00
2014-03-16 01:00:00,2,24713,0,0.00,2,2,0,2,20337,32164,3354,24066,0,0,0,0,0.00,0.00,0.00,0.00
2014-03-16 01:10:00,2,18450,0,0.00,2,2,0,2,12648,24671,3417,17544,0,0,0,0,0.00,0.00,0.00,0.00
2014-03-16 01:20:00,2,24870,0,0.00,2,2,0,2,14680,35564,6238,26313,0,0,0,0,0.00,0.00,0.00,0.00
2014-03-16 01:30:00,2,21211,0,0.00,2,2,0,2,14371,27724,4376,21669,0,0,0,0,0.00,0.00,0.00,0.00
2014-03-16 01:40:00,2,21370,0,0.00,2,2,0,2,17026,26172,2858,21992,0,0,0,0,0.00,0.00,0.00,0.00
2014-03-16 01:50:00,2,25744,0,0.00,2,2,0,2,18873,31774,3968,25696,0,0,0,0,0.00,0.00,0.00,0.00
2014-03-16 02:00:00,2,25442,0,0.00,2,2,0,2,21045,32165,3410,24602,0,0,0,0,0.00,0.00,0.00,0.00
2014-03-16 02:10:00,2,23609,0,0.00,2,2,0,2,18580,31791,4422,22436,0,0,0,0,0.00,0.00,0.00,0.00
2014-03-16 02:20:00,2,21289,0,0.00,2,2,0,2,13206,29499,4510,21141,0,0,0,0,0.00,0.00,0.00,0.00
2014-03-16 02:30:00,2,23786,0,0.00,2,2,0,2,18283,33151,4640,23007,0,0,0,0,0.00,0.00,0.00,0.00
2014-03-16 02:40:00,2,26370,0,0.00,2,2,0,2,18399,36050,5721,27830,0,0,0,0,0.00,0.00,0.00,0.00
2014-03-16 02:50:00,2,27756,0,0.00,2,2,0,2,18508,41604,6826,26056,0,0,0,0,0.00,0.00,0.00,0.00
2014-03-16 03:00:00,2,23644,0,0.00,2,2,0,2,13254,37020,7290,21956,0,0,0,0,0.00,0.00,0.00,0.00
2014-03-16 03:10:00,2,26851,0,0.00,2,2,0,2,18956,32212,4110,27614,0,0,0,0,0.00,0.00,0.00,0.00
2014-03-16 03:20:00,2,24199,0,0.00,2,2,0,2,16211,40432,6541,22092,0,0,0,0,0.00,0.00,0.00,0.00
2014-03-16 03:30:00,2,26529,0,0.00,2,2,0,2,17649,39897,6050,26370,0,0,0,0,0.00,0.00,0.00,0.00
2014-03-16 03:40:00,2,21536,0,0.00,2,2,0,2,14882,28987,5424,23804,0,0,0,0,0.00,0.00,0.00,0.00
2014-03-16 03:50:00,2,22116,0,0.00,2,2,0,2,10995,32031,7035,23569,0,0,0,0,0.00,0.00,0.00,0.00
2014-03-16 04:00:00,2,26505,0,0.00,2,2,0,2,18432,37459,6128,25716,0,0,0,0,0.00,0.00,0.00,0.00
2014-03-16 04:10:00,2,29230,0,0.00,2,2,0,2,19757,41643,7047,28002,0,0,0,0,0.00,0.00,0.00,0.00
2014-03-16 04:20:00,2,29263,0,0.00,2,2,0,2,22048,39528,5636,31317,0,0,0,0,0.00,0.00,0.00,0.00
2014-03-16 04:30:00,2,26733,0,0.00,2,2,0,2,17309,41028,7664,25420,0,0,0,0,0.00,0.00,0.00,0.00
2014-03-16 04:40:00,2,19692,0,0.00,2,2,0,2,13898,24473,3545,20876,0,0,0,0,0.00,0.00,0.00,0.00
2014-03-16 04:50:00,2,29111,0,0.00,2,2,0,2,16584,40847,6541,28561,0,0,0,0,0.00,0.00,0.00,0.00
2014-03-16 05:00:00,2,20732,0,0.00,2,2,0,2,11352,29077,5078,21728,0,0,0,0,0.00,0.00,0.00,0.00
2014-03-16 05:10:00,2,30316,0,0.00,2,2,0,2,14234,50000,11728,30674,0,0,0,0,0.00,0.00,0.00,0.00
2014-03-16 05:20:00,2,25232,0,0.00,2,2,0,2,14856,36864,7353,26314,0,0,0,0,0.00,0.00,0.00,0.00
2014-03-16 05:30:00,2,41388,0,0.00,2,2,0,2,32764,48777,5292,41316,0,0,0,0,0.00,0.00,0.00,0.00
2014-03-16 05:40:00,2,29846,0,0.00,2,2,0,2,21410,39508,6171,29460,0,0,0,0,0.00,0.00,0.00,0.00
2014-03-16 05:50:00,2,31623,0,0.00,2,2,0,2,17250,39338,6674,34078,0,0,0,0,0.00,0.00,0.00,0.00
2014-03-16 06:00:00,2,26717,0,0.00,2,2,0,2,16990,41017,7783,25084,0,0,0,0,0.00,0.00,0.00,0.00
2014-03-16 06:10:00,2,26827,0,0.00,2,2,0,2,17656,40212,5909,27470,0,0,0,0,0.00,0.00,0.00,0.00
2014-03-16 06:20:00,2,22635,0,0.00,2,2,0,2,16835,32396,5646,19814,0,0,0,0,0.00,0.00,0.00,0.00
2014-03-16 06:30:00,2,27099,0,0.00,2,2,0,2,15307,44521,7620,26707,0,0,0,0,0.00,0.00,0.00,0.00
2014-03-16 06:40:00,2,23199,0,0.00,2,2,0,2,16182,34288,4809,21952,0,0,0,0,0.00,0.00,0.00,0.00
2014-03-16 06:50:00,2,32260,0,0.00,2,2,0,2,24947,38551,4659,31398,0,0,0,0,0.00,0.00,0.00,0.00
2014-03-16 07:00:00,2,25981,0,0.00,2,2,0,2,19454,36807,5090,24826,0,0,0,0,0.00,0.00,0.00,0.00
2014-03-16 07:10:00,2,27052,0,0.00,2,2,0,2,18301,41974,7553,24192,0,0,0,0,0.00,0.00,0.00,0.00
2014-03-16 07:20:00,2,31342,0,0.00,2,2,0,2,19427,43564,6985,31862,0,0,0,0,0.00,0.00,0.00,0.00
2014-03-16 07:30:00,2,30904,0,0.00,2,2,0,2,24278,40623,5830,30504,0,0,0,0,0.00,0.00,0.00,0.00
2014-03-16 07:40:00,2,28021,0,0.00,2,2,0,2,21106,34377,4223,27050,0,0,0,0,0.00,0.00,0.00,0.00
2014-03-16 07:50:00,2,28178,0,0.00,2,2,0,2,22158,37147,5138,26676,0,0,0,0,0.00,0.00,0.00,0.00
2014-03-16 08:00:00,2,30731,0,0.00,2,2,0,2,24710,42356,4940,30493,0,0,0,0,0.00,0.00,0.00,0.00
2014-03-16 08:10:00,2,32092,0,0.00,2,2,0,2,22993,39472,5354,32560,0,0,0,0,0.00,0.00,0.00,0.00
2014-03-16 08:20:00,2,32555,0,0.00,2,2,0,2,23747,48159,8758,29634,0,0,0,0,0.00,0.00,0.00,0.00
2014-03-16 08:30:00,2,31000,0,0.00,2,2,0,2,24395,37230,3581,30867,0,0,0,0,0.00,0.00,0.00,0.00
2014-03-16 08:40:00,2,33286,0,0.00,2,2,0,2,24245,42808,5894,34330,0,0,0,0,0.00,0.00,0.00,0.00
2014-03-16 08:50:00,2,34730,0,0.00,2,2,0,2,29375,41410,3925,33860,0,0,0,0,0.00,0.00,0.00,0.00
2014-03-16 09:00:00,2,32578,0,0.00,2,2,0,2,30578,34992,1452,32272,0,0,0,0,0.00,0.00,0.00,0.00
2014-03-16 09:10:00,2,30579,0,0.00,2,2,0,2,26278,41264,4441,28640,0,0,0,0,0.00,0.00,0.00,0.00
2014-03-16 09:20:00,2,30679,0,0.00,2,2,0,2,26801,38042,3194,30374,0,0,0,0,0.00,0.00,0.00,0.00
2014-03-16 09:30:00,2,37003,0,0.00,2,2,0,2,32670,42917,2859,37357,0,0,0,0,0.00,0.00,0.00,0.00
2014-03-16 09:40:00,2,36874,0,0.00,2,2,0,2,31171,42427,3054,37740,0,0,0,0,0.00,0.00,0.00,0.00
2014-03-16 09:50:00,2,37052,0,0.00,2,2,0,2,31112,42013,3660,37587,0,0,0,0,0.00,0.00,0.00,0.00
2014-03-16 10:00:00,2,38726,0,0.00,2,2,0,2,31718,44606,4162,40042,0,0,0,0,0.00,0.00,0.00,0.00
2014-03-16 10:10:00,2,38750,0,0.00,2,2,0,2,35069,42911,2725,39364,0,0,0,0,0.00,0.00,0.00,0.00
2014-03-16 10:20:00,2,31835,0,0.00,2,2,0,2,28334,35707,2425,31520,0,0,0,0,0.00,0.00,0.00,0.00
2014-03-16 10:30:00,2,31371,0,0.00,2,2,0,2,26334,37232,2869,31079,0,0,0,0,0.00,0.00,0.00,0.00
2014-03-16 10:40:00,2,40329,0,0.00,2,2,0,2,33507,46650,4786,42312,0,0,0,0,0.00,0.00,0.00,0.00
2014-03-16 10:50:00,2,36268,0,0.00,2,2,0,2,31869,40718,3467,36534,0,0,0,0,0.00,0.00,0.00,0.00
2014-03-16 11:00:00,2,32714,0,0.00,2,2,0,2,28710,38447,2709,32496,0,0,0,0,0.00,0.00,0.00,0.00
2014-03-16 11:10:00,2,32516,0,0.00,2,2,0,2,28638,35813,2111,32946,0,0,0,0,0.00,0.00,0.00,0.00
2014-03-16 11:20:00,2,31272,0,0.00,2,2,0,2,28180,35002,1803,31110,0,0,0,0,0.00,0.00,0.00,0.00
2014-03-16 11:30:00,2,30738,0,0.00,2,2,0,2,28266,36185,2296,29629,0,0,0,0,0.00,0.00,0.00,0.00
2014-03-16 11:40:00,2,32538,0,0.00,2,2,0,2,27533,37665,3109,32178,0,0,0,0,0.00,0.00,0.00,0.00
2014-03-16 11:50:00,2,32258,0,0.00,2,2,0,2,27475,39205,3480,31976,0,0,0,0,0.00,0.00,0.00,0.00
2014-03-16 12:00:00,2,35855,0,0.00,2,2,0,2,31015,42389,3758,34360,0,0,0,0,0.00,0.00,0.00,0.00
2014-03-16 12:10:00,2,32102,0,0.00,2,2,0,2,27734,40001,3877,30738,0,0,0,0,0.00,0.00,0.00,0.00
2014-03-16 12:20:00,2,35035,0,0.00,2,2,0,2,28999,38492,2481,35945,0,0,0,0,0.00,0.00,0.00,0.00
2014-03-16 12:30:00,2,34720,0,0.00,2,2,0,2,28602,37018,2463,35606,0,0,0,0,0.00,0.00,0.00,0.00
2014-03-16 12:40:00,2,35795,0,0.00,2,2,0,2,31705,43789,3943,33816,0,0,0,0,0.00,0.00,0.00,0.00
2014-03-16 12:50:00,2,37324,0,0.00,2,2,0,2,31860,42687,3568,37698,0,0,0,0,0.00,0.00,0.00,0.00
2014-03-16 13:00:00,2,40048,0,0.00,2,2,0,2,37890,44329,2049,39716,0,0,0,0,0.00,0.00,0.00,0.00
2014-03-16 13:10:00,2,40960,0,0.00,2,2,0,2,37103,46905,2906,39976,0,0,0,0,0.00,0.00,0.00,0.00
2014-03-16 13:20:00,2,42456,0,0.00,2,2,0,2,35723,49050,4459,42091,0,0,0,0,0.00,0.00,0.00,0.00
2014-03-16 13:30:00,2,41063,0,0.00,2,2,0,2,38433,44959,1964,40822,0,0,0,0,0.00,0.00,0.00,0.00
2014-03-16 13:40:00,2,45499,0,0.00,2,2,0,2,41278,48963,2679,45540,0,0,0,0,0.00,0.00,0.00,0.00
2014-03-16 13:50:00,2,38240,0,0.00,2,2,0,2,34368,43497,2707,37520,0,0,0,0,0.00,0.00,0.00,0.00
2014-03-16 14:00:00,2,43927,0,0.00,2,2,0,2,40001,49371,2954,43593,0,0,0,0,0.00,0.00,0.00,0.00
2014-03-16 14:10:00,2,41451,0,0.00,2,2,0,2,35809,46949,3112,40985,0,0,0,0,0.00,0.00,0.00,0.00
2014-03-16 14:20:00,2,39980,0,0.00,2,2,0,2,36707,42715,1869,40513,0,0,0,0,0.00,0.00,0.00,0.00
2014-03-16 14:30:00,2,41573,0,0.00,2,2,0,2,34756,48702,4273,41564,0,0,0,0,0.00,0.00,0.00,0.00
2014-03-16 14:40:00,2,38943,0,0.00,2,2,0,2,32066,44026,3631,39388,0,0,0,0,0.00,0.00,0.00,0.00
2014-03-16 14:50:00,2,40026,0,0.00,2,2,0,2,35443,44993,2839,39840,0,0,0,0,0.00,0.00,0.00,0.00
2014-03-16 15:00:00,2,39585,0,0.00,2,2,0,2,35002,44132,2866,39814,0,0,0,0,0.00,0.00,0.00,0.00
2014-03-16 15:10:00,2,39047,0,0.00,2,2,0,2,33127,42760,2917,39845,0,0,0,0,0.00,0.00,0.00,0.00
2014-03-16 15:20:00,2,43525,0,0.00,2,2,0,2,39325,50000,3243,43406,0,0,0,0,0.00,0.00,0.00,0.00
2014-03-16 15:30:00,2,45170,0,0.00,2,2,0,2,38012,50000,3757,45193,0,0,0,0,0.00,0.00,0.00,0.00
2014-03-16 15:40:00,2,42262,0,0.00,2,2,0,2,34858,50000,5155,40890,0,0,0,0,0.00,0.00,0.00,0.00
2014-03-16 15:50:00,2,39608,0,0.00,2,2,0,2,31528,45281,3488,40092,0,0,0,0,0.00,0.00,0.00,0.00
2014-03-16 16:00:00,2,42679,0,0.00,2,2,0,2,37224,47190,3338,43488,0,0,0,0,0.00,0.00,0.00,0.00
2014-03-16 16:10:00,2,43096,0,0.00,2,2,0,2,36229,47589,3216,43453,0,0,0,0,0.00,0.00,0.00,0.00
2014-03-16 16:20:00,2,47036,0,0.00,2,2,0,2,41131,50000,3107,47842,0,0,0,0,0.00,0.00,0.00,0.00
2014-03-16 16:30:00,2,48565,0,0.00,2,2,0,2,43973,50000,1990,49694,0,0,0,0,0.00,0.00,0.00,0.00
2014-03-16 16:40:00,2,46887,0,0.00,2,2,0,2,44391,50000,2066,46679,0,0,0,0,0.00,0.00,0.00,0.00
2014-03-16 16:50:00,2,42332,0,0.00,2,2,0,2,37969,48630,3060,42178,0,0,0,0,0.00,0.00,0.00,0.00
2014-03-16 17:00:00,2,42374,0,0.00,2,2,0,2,38351,47587,2998,41052,0,0,0,0,0.00,0.00,0.00,0.00
2014-03-16 17:10:00,2,43774,0,0.00,2,2,0,2,39316,50000,2952,43848,0,0,0,0,0.00,0.00,0.00,0.00
2014-03-16 17:20:00,2,43352,0,0.00,2,2,0,2,36420,47382,3008,44012,0,0,0,0,0.00,0.00,0.00,0.00
2014-03-16 17:30:00,2,43058,0,0.00,2,2,0,2,35501,50000,5002,44414,0,0,0,0,0.00,0.00,0.00,0.00
2014-03-16 17:40:00,2,45872,0,0.00,2,2,0,2,39572,50000,3681,46862,0,0,0,0,0.00,0.00,0.00,0.00
2014-03-16 17:50:00,2,46972,0,0.00,2,2,0,2,41583,50000,3228,48245,0,0,0,0,0.00,0.00,0.00,0.00
2014-03-16 18:00:00,2,44086,0,0.00,2,2,0,2,38923,50000,3924,43564,0,0,0,0,0.00,0.00,0.00,0.00
2014-03-16 18:10:00,2,44497,0,0.00,2,2,0,2,38703,50000,2893,44472,0,0,0,0,0.00,0.00,0.00,0.00
2014-03-16 18:20:00,2,43294,0,0.00,2,2,0,2,39424,48235,2689,42983,0,0,0,0,0.00,0.00,0.00,0.00
2014-03-16 18:30:00,2,46018,0,0.00,2,2,0,2,39945,50000,3593,46002,0,0,0,0,0.00,0.00,0.00,0.00
2014-03-16 18:40:00,2,44543,0,0.00,2,2,0,2,36564,50000,4323,45853,0,0,0,0,0.00,0.00,0.00,0.00
2014-03-16 18:50:00,2,43678,0,0.00,2,2,0,2,38272,49775,3616,43524,0,0,0,0,0.00,0.00,0.00,0.00
2014-03-16 19:00:00,2,43154,0,0.00,2,2,0,2,38757,47505,3405,43103,0,0,0,0,0.00,0.00,0.00,0.00
2014-03-16 19:10:00,2,40854,0,0.00,2,2,0,2,35955,44778,2853,41183,0,0,0,0,0.00,0.00,0.00,0.00
2014-03-16 19:20:00,2,43219,0,0.00,2,2,0,2,35786,50000,4503,43924,0,0,0,0,0.00,0.00,0.00,0.00
2014-03-16 19:30:00,2,41210,0,0.00,2,2,0,2,34123,45801,3018,40941,0,0,0,0,0.00,0.00,0.00,0.00
2014-03-16 19:40:00,2,41254,0,0.00,2,2,0,2,33909,49184,3862,41256,0,0,0,0,0.00,0.00,0.00,0.00
2014-03-16 19:50:00,2,41164,0,0.00,2,2,0,2,34476,47737,3505,41092,0,0,0,0,0.00,0.00,0.00,0.00
2014-03-16 20:00:00,2,41174,0,0.00,2,2,0,2,38216,47176,2909,40337,0,0,0,0,0.00,0.00,0.00,0.00
2014-03-16 20:10:00,2,38248,0,0.00,2,2,0,2,33641,43949,4068,38214,0,0,0,0,0.00,0.00,0.00,0.00
2014-03-16 20:20:00,2,41971,0,0.00,2,2,0,2,33966,49748,4757,41065,0,0,0,0,0.00,0.00,0.00,0.00
2014-03-16 20:30:00,2,35258,0,0.00,2,2,0,2,31534,41437,3260,34093,0,0,0,0,0.00,0.00,0.00,0.00
2014-03-16 20:40:00,2,35623,0,0.00,2,2,0,2,27834,41470,4135,36610,0,0,0,0,0.00,0.00,0.00,0.00
2014-03-16 20:50:00,2,42854,0,0.00,2,2,0,2,35123,47381,3001,43167,0,0,0,0,0.00,0.00,0.00,0.00
2014-03-16 21:00:00,2,38494,0,0.00,2,2,0,2,32263,43800,3326,38606,0,0,0,0,0.00,0.00,0.00,0.00
2014-03-16 21:10:00,2,38173,0,0.00,2,2,0,2,34377,42562,2453,37990,0,0,0,0,0.00,0.00,0.00,0.00
2014-03-16 21:20:00,2,40465,0,0.00,2,2,0,2,35828,45110,3236,40911,0,0,0,0,0.00,0.00,0.00,0.00
2014-03-16 21:30:00,2,38736,0,0.00,2,2,0,2,30061,46083,5331,40475,0,0,0,0,0.00,0.00,0.00,0.00
2014-03-16 21:40:00,2,39599,0,0.00,2,2,0,2,31426,46885,5211,38528,0,0,0,0,0.00,0.00,0.00,0.00
2014-03-16 21:50:00,2,41087,0,0.00,2,2,0,2,32596,47776,4739,41054,0,0,0,0,0.00,0.00,0.00,0.00
2014-03-16 22:00:00,2,41202,0,0.00,2,2,0,2,34239,50000,5659,40476,0,0,0,0,0.00,0.00,0.00,0.00
2014-03-16 22:10:00,2,42729,0,0.00,2,2,0,2,36915,50000,4324,43000,0,0,0,0,0.00,0.00,0.00,0.00
2014-03-16 22:20:00,2,41243,0,0.00,2,2,0,2,33348,47491,4560,42435,0,0,0,0,0.00,0.00,0.00,0.00
2014-03-16 22:30:00,2,38794,0,0.00,2,2,0,2,29941,49844,6280,37117,0,0,0,0,0.00,0.00,0.00,0.00
2014-03-16 22:40:00,2,38929,0,0.00,2,2,0,2,32630,50000,6587,35317,0,0,0,0,0.00,0.00,0.00,0.00
2014-03-16 22:50:00,2,39017,0,0.00,2,2,0,2,31047,48977,5847,37393,0,0,0,0,0.00,0.00,0.00,0.00
2014-03-16 23:00:00,2,33588,0,0.00,2,2,0,2,26515,47658,5863,33252,0,0,0,0,0.00,0.00,0.00,0.00
2014-03-16 23:10:00,2,38188,0,0.00,2,2,0,2,32540,45287,4091,37091,0,0,0,0,0.00,0.00,0.00,0.00
2014-03-16 23:20:00,2,37516,0,0.00,2,2,0,2,22856,46873,6898,39122,0,0,0,0,0.00,0.00,0.00,0.00
2014-03-16 23:30:00,2,36694,0,0.00,2,2,0,2,25969,41836,4563,38202,0,0,0,0,0.00,0.00,0.00,0.00
2014-03-16 23:40:00,2,38080,0,0.00,2,2,0,2,28418,50000,6427,37802,0,0,0,0,0.00,0.00,0.00,0.00
2014-03-16 23:50:00,2,32918,0,0.00,2,2,0,2,20345,46565,7212,34162,0,0,0,0,0.00,0.00,0.00,0.00
